STARLINK-36521, 67507

Orbit data source: Space-Track

STARLINK-36521, 67507 is a payload satellite owned by SpaceX/Seattle (US) in LEO that was launched on Sun, 18 Jan 2026 UTC via an FALCON 9 launch vehicle from the Air Force Eastern Test Range (AFETR). Payload-class satellites include a variety of spacecraft equipped with specific instruments for various scientific and technological missions. These include communications satellites like Starlink; space stations such as the ISS; scientific satellites like the Hubble; Earth observation satellites from companies like Planet Labs, Umbra, and HawkEye 360; GPS; miniature CubeSats for education and research; and military/defense satellites.

Loading next visibility...
Identifier
67507, 2026-012Q
Orbit
LEO
Country
Flag of USUS
Related business
Manufacturer
SpaceX/Seattle
Mission
Operational spacecraft
Bus & Motor
STARLINK V2MO, Unknown motor
Mass
575 kg wet, ~530 kg dry
Launch date (UTC)
2026-01-18 (2 weeks ago)
Launch vehicle
FALCON 9
Launch site
Air Force Eastern Test Range (AFETR)
Object type
Payload
Rocket body
Debris
Shape & HBR
Unknown shape, 17.7 m
Radar Cross Section
RCS unknown

Expand to show TLE details & history
Last TLE update: 12 hours ago

TLE from 12 hours ago
0 STARLINK-36521
1 67507U 26012Q   26034.58335648  .00033574  00000-0  16166-3 0  9998
2 67507  42.9962 150.4068 0001645 264.3246 213.7373 15.81975286  3580
Epoch: 2026-02-03T14:00Z
TLE epoch observation values (Epoch: 2026-02-03T14:00:01.999Z)
Latitude
37.14536°
Longitude
-67.25395°
Altitude
327.616 km
Speed
7.717 km/s
True Right ascension
18h 26m 03s
True Declination
36° 58' 10"
Sunlit
Object was in daylight at epoch
Visualization orbit readout
Latitude
Unknown
Longitude
Unknown
Altitude
Unknown
Speed
Unknown
Apparent Right ascension
Unknown
Apparent Declination
Unknown
Sunlit
N/A
Visualization observer readout
Local Sidereal Time
04:09:58
Azimuth
Unknown
Elevation
Unknown
Doppler factor
Unknown
Orbital elements
Apogee altitude
327.95 km
Perigee altitude
325.744 km
Semi-major axis
6,704.984 km
Eccentricity
0.00016
Inclination
42.9962°
RAAN
150.4068°
Arg. of periapsis
264.3246°
True anomaly
213.72683°
Mean anomaly
213.7373°
Eccentric anomaly
213.73207°
Mean motion
3.95318 °/min
Orbital period
91.07 mins
BSTAR
0.00016166
Loading maneuver chart data...
Computing Atmospheric mass density...
Loading historical data...
Loading historical data...
Loading historical data...
Loading historical data...
Loading historical data...
Loading historical data...
Loading historical data...

Documentation

Showing up to 5 results
|